Weather History for Estherville, IA

Change the Weather History Date:

Thursday, July 25, 2013

  Actual Average Record
Temperature  
Mean Temperature 71 °F 72 °F  
Max Temperature 85 °F 82 °F 98 °F (1949)
Min Temperature 56 °F 61 °F 48 °F (2004)
Degree Days  
Heating Degree Days 0 0  
Month to date heating degree days 0 0  
Since 1 June heating degree days 54 41  
Since 1 July heating degree days 0 0  
Cooling Degree Days 6 7  
Month to date cooling degree days 226 175  
Year to date cooling degree days 409 348  
Since 1 June cooling degree days 376 312  
Growing Degree Days 18 (Base 50)    
Moisture  
Dew Point 63 °F    
Average Humidity 79    
Maximum Humidity 100    
Minimum Humidity 58    
Precipitation  
Precipitation 0.50 in 0.11 in 1.38 in (2014)
Month to date precipitation 0.50 3.29  
Sea Level Pressure  
Sea Level Pressure 29.97 in    
Wind  
Wind Speed 7 mph (SSW)    
Max Wind Speed 22 mph    
Max Gust Speed 25 mph    
Visibility 8 miles    
Events Rain , Thunderstorm    
T = Trace of Precipitation, MM = Missing Value Source: NWS Daily Summary

Daily Weather History Graph

Daily Weather History Graph

Search for Another Location

Airport:

Trip Planner

Search our weather history database for the weather conditions in past years. The results will help you decide how hot, cold, wet, or windy it might be!

Date:

Astronomy

Jul. 25, 2013 Rise Set
Actual Time 6:01 AM CDT 8:48 PM CDT
Civil Twilight 5:28 AM CDT 9:21 PM CDT
Nautical Twilight 4:46 AM CDT 10:03 PM CDT
Astronomical Twilight 3:57 AM CDT 10:52 PM CDT
Moon 10:20 PM CDT (7/25) 9:40 AM CDT (7/25)
Length of Visible Light 15h 53m
Length of Day
14h 46m
Waning Gibbous, 88% of the Moon is Illuminated
Jul 25
Waning Gibbous
Jul 29
Last Quarter
Aug 6
New
Aug 14
First Quarter
Aug 20
Full

Hourly Weather History & Observations

Time (CDT) Temp. Heat Index Dew Point Humidity Pressure Visibility Wind Dir Wind Speed Gust Speed Precip Events Conditions
12:52 AM 59.0 °F - 55.9 °F 90% 30.01 in 10.0 mi SSW 3.5 mph - N/A   Clear
1:52 AM 59.0 °F - 55.9 °F 90% 30.02 in 10.0 mi SSW 3.5 mph - N/A   Clear
2:52 AM 55.9 °F - 54.0 °F 93% 30.01 in 10.0 mi SSW 5.8 mph - N/A   Clear
3:52 AM 59.0 °F - 55.9 °F 90% 29.99 in 10.0 mi SSW 8.1 mph - N/A   Clear
4:52 AM 57.9 °F - 55.0 °F 90% 29.99 in 10.0 mi South 5.8 mph - N/A   Clear
5:52 AM 57.9 °F - 55.9 °F 93% 30.00 in 10.0 mi SSW 5.8 mph - N/A   Clear
6:52 AM 62.1 °F - 59.0 °F 90% 30.01 in 10.0 mi SW 6.9 mph - N/A   Clear
7:52 AM 66.9 °F - 61.0 °F 81% 30.01 in 10.0 mi WSW 9.2 mph - N/A   Clear
8:52 AM 72.0 °F - 63.0 °F 73% 30.00 in 10.0 mi WSW 13.8 mph 20.7 mph N/A   Clear
9:52 AM 77.0 °F - 66.0 °F 69% 29.99 in 10.0 mi SW 11.5 mph 17.3 mph N/A   Clear
10:52 AM 80.1 °F 81.9 °F 64.9 °F 60% 30.00 in 10.0 mi SW 12.7 mph 19.6 mph N/A   Clear
11:52 AM 82.0 °F 84.5 °F 66.9 °F 60% 29.99 in 10.0 mi WSW 8.1 mph - N/A   Clear
12:52 PM 81.0 °F 83.3 °F 66.9 °F 62% 29.98 in 10.0 mi SW 8.1 mph - N/A   Partly Cloudy
1:52 PM 82.0 °F 84.5 °F 66.9 °F 60% 29.97 in 10.0 mi SSW 8.1 mph - N/A   Scattered Clouds
2:52 PM 82.9 °F 85.4 °F 66.9 °F 58% 29.94 in 10.0 mi SW 9.2 mph - N/A   Partly Cloudy
3:52 PM 82.9 °F 85.8 °F 68.0 °F 60% 29.92 in 10.0 mi SW 6.9 mph - 0.00 in   Scattered Clouds
4:52 PM 82.9 °F 85.4 °F 66.9 °F 58% 29.92 in 10.0 mi Calm Calm - N/A   Mostly Cloudy
5:20 PM 73.4 °F - 62.6 °F 69% 29.94 in 10.0 mi NE 11.5 mph - N/A   Overcast
5:38 PM 73.4 °F - 64.4 °F 73% 29.94 in 10.0 mi ENE 11.5 mph - N/A Thunderstorm Mostly Cloudy
5:49 PM 71.6 °F - 64.4 °F 78% 29.95 in 7.0 mi ENE 12.7 mph 18.4 mph 0.01 in Rain , Thunderstorm Light Thunderstorms and Rain
5:52 PM 70.0 °F - 64.0 °F 81% 29.94 in 6.0 mi ENE 13.8 mph 18.4 mph 0.01 in Rain , Thunderstorm Light Thunderstorms and Rain
6:15 PM 66.2 °F - 64.4 °F 94% 29.95 in 2.5 mi NNE 12.7 mph - 0.13 in Rain , Thunderstorm Thunderstorms and Rain
6:22 PM 66.2 °F - 64.4 °F 94% 29.96 in 1.0 mi NNE 15.0 mph - 0.31 in Rain , Thunderstorm Heavy Thunderstorms and Rain
6:30 PM 64.4 °F - 64.4 °F 100% 29.96 in 0.8 mi NNE 11.5 mph - 0.49 in Rain , Thunderstorm Heavy Thunderstorms and Rain
6:36 PM 64.4 °F - 64.4 °F 100% 29.95 in 1.5 mi ENE 10.4 mph - 0.49 in Rain , Thunderstorm Light Thunderstorms and Rain
6:38 PM 66.2 °F - 64.4 °F 94% 29.94 in 3.0 mi ENE 9.2 mph - 0.49 in Rain , Thunderstorm Light Thunderstorms and Rain
6:52 PM 69.1 °F - 66.0 °F 90% 29.92 in 10.0 mi NE 15.0 mph - 0.49 in Rain Light Rain
7:52 PM 68.0 °F - 66.0 °F 93% 29.95 in 10.0 mi SSE 5.8 mph 16.1 mph 0.00 in   Partly Cloudy
8:36 PM 66.2 °F - 64.4 °F 94% 29.97 in 10.0 mi Calm Calm - N/A Thunderstorm Partly Cloudy
8:52 PM 66.9 °F - 64.0 °F 90% 29.95 in 10.0 mi South 3.5 mph - N/A   Mostly Cloudy
9:52 PM 66.0 °F - 64.9 °F 96% 29.96 in 10.0 mi Calm Calm - N/A   Overcast
10:52 PM 64.0 °F - 64.0 °F 100% 29.97 in 10.0 mi Calm Calm - N/A   Clear
11:52 PM 62.1 °F - 62.1 °F 100% 29.96 in 6.0 mi West 4.6 mph - N/A   Clear